Dewpoint
54 53 53 54 57 60 62 64 65 65 68 69 70 70 71 72 71 70 70 71 69 70 69 71 74 74 75 76 76 76 75 72 72
53 54 54 55 56 60 62 64 65 66 69 69 70 68 71 72 72 72 70 73 72 71 73 72 75 75 75 75 75 74 73 71 71
54 56 57 57 58 58 61 61 64 66 70 70 69 69 70 70 71 73 72 73 73 73 73 75 75 75 75 74 74 73 73 72 72
53 57 61 61 61 61 61 64 66 66 67 68 65 67 71 71 71 71 72 70 71 73 73 76 76 75 75 74 73 73 73 72 71
58 62 60 61 62 66 65 67 67 67 68 66 65 66 68 70 70 70 68 70 70 74 75 75 76 76 75 75 74 74 73 72 71
62 62 61 61 62 66 68 68 69 69 69 67 66 70 67 69 68 67 67 68 70 72 73 76 75 76 76 75 74 74 73 72 71
61 62 62 61 61 64 68 69 70 71 70 70 70 68 66 65 64 64 64 67 69 70 74 77 77 77 76 76 75 75 74 73 73
62 62 61 61 62 65 68 69 69 70 68 68 67 67 65 65 66 67 68 68 70 72 75 77 77 77 78 77 76 74 75 74 72
62 62 62 62 63 64 65 66 67 66 67 67 67 67 67 70 74 76 75 75 76 76 77 77 77 77 77 76 74 68 68 69 70
63 62 62 63 63 63 64 65 65 66 69 70 69 71 74 76 77 76 76 76 76 75 75 75 75 75 75 74 73 67 66 67 66
62 63 64 65 63 64 67 68 70 72 72 73 74 74 73 73 74 73 72 73 73 74 75 74 74 74 74 74 72 67 65 66 70
63 64 65 66 66 68 70 71 73 72 71 71 69 67 67 67 67 66 66 66 67 68 68 68 68 69 70 70 71 65 63 65 70
63 65 66 67 68 69 69 71 71 70 68 67 66 66 66 67 66 66 65 66 67 67 68 66 64 64 65 63 65 63 62 63 66
64 65 66 67 68 68 69 69 68 68 66 66 66 67 66 66 65 64 66 66 66 66 66 66 65 63 64 64 64 65 62 61 67
64 64 65 66 67 67 67 66 66 64 64 65 67 66 65 65 65 62 59 66 66 66 65 64 63 63 61 58 63 61 60 60 60
63 64 63 63 64 62 61 62 61 61 64 66 66 65 65 64 64 64 64 65 64 61 63 60 60 56 57 56 57 59 58 58 57
61 61 61 60 60 60 61 61 63 62 64 65 64 64 65 65 64 63 64 61 60 59 58 57 57 57 57 57 58 59 59 59 59
61 61 59 59 60 61 61 63 62 62 63 64 63 64 63 62 60 61 60 59 57 56 59 56 56 57 56 56 56 56 55 55 57
61 60 60 60 61 61 61 61 61 63 63 63 62 61 58 56 56 55 55 55 57 55 53 52 50 49 52 54 52 52 50 48 48
58 60 60 60 60 59 61 62 61 61 63 61 61 59 59 56 55 55 56 57 58 57 55 51 50 49 49 48 50 48 47 46 46
Lifted_Index
-2 -1 -1 -1 -1 -1 -1 -2 -3 -4 -4 -5 -5 -5 -6 -6 -6 -6 -6 -7 -6 -6 -6 -6 -6 -6 -6 -6 -6 -5 -4 -4 -3
-2 -1 -1 -1 -2 -2 -2 -2 -3 -3 -4 -4 -4 -5 -6 -6 -6 -6 -7 -7 -7 -7 -7 -7 -7 -6 -6 -6 -5 -5 -4 -3 -3
-2 -2 -2 -2 -2 -2 -2 -2 -2 -3 -4 -4 -4 -5 -6 -6 -6 -7 -7 -7 -7 -7 -8 -8 -7 -7 -6 -6 -5 -4 -4 -3 -3
-3 -3 -3 -2 -2 -2 -2 -2 -2 -3 -3 -3 -3 -3 -5 -5 -5 -6 -6 -6 -6 -7 -8 -8 -8 -7 -7 -6 -5 -5 -5 -4 -3
-4 -4 -3 -2 -2 -2 -2 -3 -3 -3 -3 -3 -3 -3 -3 -4 -4 -4 -4 -5 -6 -7 -8 -8 -8 -8 -8 -7 -6 -6 -5 -4 -4
-5 -4 -3 -2 -2 -3 -3 -3 -4 -4 -4 -3 -3 -3 -3 -3 -3 -3 -3 -4 -5 -6 -8 -9 -9 -9 -9 -8 -8 -7 -6 -5 -5
-5 -4 -3 -3 -3 -3 -4 -4 -4 -4 -4 -4 -3 -3 -2 -2 -2 -3 -4 -4 -5 -7 -8 -10 -10 -10 -10 -10 -9 -8 -7 -6 -6
-5 -5 -4 -3 -3 -3 -3 -4 -4 -4 -4 -3 -3 -2 -2 -2 -3 -4 -5 -6 -7 -8 -9 -10 -11 -11 -11 -10 -10 -9 -8 -7 -6
-6 -5 -5 -4 -4 -3 -3 -3 -3 -3 -3 -3 -3 -3 -3 -4 -6 -6 -7 -7 -8 -8 -9 -10 -10 -10 -10 -10 -9 -8 -7 -6 -6
-6 -6 -5 -5 -4 -4 -3 -3 -4 -4 -4 -5 -5 -5 -6 -7 -7 -7 -7 -7 -7 -8 -8 -8 -9 -9 -9 -9 -8 -7 -6 -6 -6
-6 -6 -6 -5 -5 -4 -4 -5 -5 -5 -6 -6 -6 -6 -6 -6 -6 -6 -6 -6 -6 -6 -6 -6 -7 -7 -7 -7 -7 -6 -5 -5 -5
-6 -6 -6 -6 -6 -5 -6 -6 -6 -6 -6 -6 -6 -6 -6 -5 -5 -4 -4 -3 -3 -3 -3 -3 -4 -4 -5 -5 -5 -5 -5 -5 -5
-6 -6 -6 -6 -6 -6 -6 -6 -6 -6 -6 -6 -6 -5 -5 -4 -3 -2 -1 -1 -1 -1 -1 -1 -1 -1 -2 -2 -2 -3 -3 -3 -3
-6 -6 -7 -7 -7 -7 -6 -6 -6 -6 -5 -5 -4 -4 -3 -2 -1 0 1 1 1 1 1 1 1 1 1 1 0 -0 -0 -0 -0
-6 -6 -7 -7 -7 -6 -6 -5 -5 -4 -4 -3 -2 -2 -1 -1 0 1 2 2 2 2 2 2 2 3 3 2 2 2 2 2 2
-6 -6 -6 -6 -6 -5 -4 -3 -3 -2 -2 -1 -1 -1 -1 -1 0 1 2 2 3 3 3 3 3 3 3 3 3 2 2 3 3
-5 -5 -5 -5 -4 -4 -3 -2 -1 -1 -1 -1 -0 -0 -0 -0 1 2 2 3 4 4 4 4 4 4 4 3 3 3 3 3 3
-4 -4 -4 -3 -3 -2 -1 -1 -1 -1 -1 -0 0 0 1 1 2 3 4 4 5 5 5 5 5 5 5 5 4 4 4 4 4
-3 -3 -2 -2 -2 -1 -1 -1 -1 -1 -0 0 1 1 2 3 4 4 5 5 5 5 5 6 6 6 6 7 6 6 6 6 5
-1 -1 -1 -1 -1 -1 -1 -1 -1 -1 -0 0 1 2 2 3 4 4 4 4 4 4 5 6 7 7 7 8 8 7 7 7 7